Location: Nashville
(36.1660°N, 86.7840°W)
Time: 05:38:34
(UTC-06:00)

Tiros 1 - All Passes

Search period start: 19 January 2022 00:00
Search period end: 29 January 2022 00:00
Orbit: 629 x 664 km, 48.4° (Epoch: 19 January)

Date Brightness Start Highest point End Pass type
(mag) Time Alt. Az. Time Alt. Az. Time Alt. Az.
19 Jan - 00:00:02 10° SW 00:04:48 68° SE 00:09:33 10° ENE night (unlit)
19 Jan - 01:43:01 10° W 01:47:17 31° NNW 01:51:31 10° NE night (unlit)
19 Jan - 03:27:19 10° NW 03:30:37 18° N 03:33:55 10° NE visible
19 Jan - 05:10:02 10° NW 05:14:02 26° NNE 05:17:59 10° ENE visible
19 Jan - 06:51:56 10° NW 06:56:40 87° SW 07:01:20 10° SE daylight
19 Jan - 08:35:55 10° W 08:38:17 14° SW 08:40:39 10° SSW daylight
19 Jan - 22:44:45 10° S 22:48:44 26° SE 22:52:44 10° ENE night (unlit)
20 Jan - 00:25:58 10° WSW 00:30:42 58° NNW 00:35:26 10° NE night (unlit)
20 Jan - 02:09:56 10° WNW 02:13:39 22° NNW 02:17:20 10° NE night (unlit)
20 Jan - 03:53:41 10° NW 03:57:09 19° N 04:00:35 10° NE visible
20 Jan - 05:35:45 10° NW 05:40:16 43° NNE 05:44:44 10° E visible
20 Jan - 07:18:05 10° WNW 07:22:25 37° SW 07:26:42 10° SSE daylight
20 Jan - 23:09:40 10° SW 23:14:24 62° SE 23:19:08 10° ENE night (unlit)
21 Jan - 00:52:31 10° W 00:56:50 32° NNW 01:01:09 10° NE night (unlit)
21 Jan - 02:36:48 10° NW 02:40:08 18° N 02:43:28 10° NE night (unlit)
21 Jan - 04:19:37 10° NW 04:23:35 25° NNE 04:27:30 10° ENE visible
21 Jan - 06:01:33 10° NW 06:06:17 86° NE 06:10:57 10° SE visible
21 Jan - 07:45:11 10° W 07:47:57 16° SW 07:50:40 10° SSW daylight
21 Jan - 21:54:33 10° S 21:58:22 24° SE 22:02:12 10° E night (unlit)
21 Jan - 23:35:31 10° WSW 23:40:17 63° NNW 23:45:02 10° NE night (unlit)
22 Jan - 01:19:24 10° WNW 01:23:11 22° NNW 01:26:56 10° NE night (unlit)
22 Jan - 03:03:14 10° NW 03:06:40 19° N 03:10:06 10° NE visible
22 Jan - 04:45:22 10° NW 04:49:51 40° NNE 04:54:16 10° E visible
22 Jan - 06:27:37 10° WNW 06:32:03 41° SW 06:36:26 10° SSE visible
22 Jan - 22:19:19 10° SW 22:24:01 56° SE 22:28:42 10° ENE night (unlit)
23 Jan - 00:02:00 10° W 00:06:24 34° NNW 00:10:46 10° NE night (unlit)
23 Jan - 01:46:17 10° NW 01:49:40 19° N 01:53:01 10° NE night (unlit)
23 Jan - 03:29:13 10° NW 03:33:08 24° NNE 03:37:00 10° ENE visible
23 Jan - 05:11:07 10° NW 05:15:53 79° NE 05:20:34 10° ESE visible
23 Jan - 06:54:32 10° W 06:57:36 17° SW 07:00:38 10° S daylight
23 Jan - 21:04:21 10° S 21:08:00 22° SE 21:11:40 10° E night (unlit)
23 Jan - 22:45:04 10° WSW 22:49:51 68° NW 22:54:39 10° NE night (unlit)
24 Jan - 00:28:52 10° WNW 00:32:43 23° NNW 00:36:32 10° NE night (unlit)
24 Jan - 02:12:47 10° NW 02:16:12 19° N 02:19:36 10° NE night (unlit)
24 Jan - 03:54:57 10° NW 03:59:25 38° NNE 04:03:49 10° E visible
24 Jan - 05:37:09 10° WNW 05:41:41 46° SW 05:46:08 10° SSE visible
24 Jan - 21:28:58 10° SSW 21:33:37 51° SE 21:38:16 10° ENE night (unlit)
24 Jan - 23:11:30 10° W 23:15:56 36° NNW 23:20:23 10° NE night (unlit)
25 Jan - 00:55:46 10° NW 00:59:11 19° N 01:02:35 10° NE night (unlit)
25 Jan - 02:38:48 10° NW 02:42:40 24° NNE 02:46:30 10° ENE visible
25 Jan - 04:20:43 10° NW 04:25:29 73° NE 04:30:10 10° ESE visible
25 Jan - 06:03:54 10° W 06:07:15 19° SW 06:10:33 10° S visible
25 Jan - 20:14:12 10° S 20:17:38 20° SE 20:21:05 10° E night (unlit)
25 Jan - 21:54:38 10° WSW 21:59:26 74° NW 22:04:15 10° NE night (unlit)
25 Jan - 23:38:20 10° WNW 23:42:14 24° NNW 23:46:08 10° NE night (unlit)
26 Jan - 01:22:18 10° NW 01:25:43 19° N 01:29:07 10° NE night (unlit)
26 Jan - 03:04:34 10° NW 03:08:58 36° NNE 03:13:20 10° E visible
26 Jan - 04:46:42 10° WNW 04:51:18 51° SW 04:55:50 10° SSE visible
26 Jan - 20:38:38 10° SSW 20:43:13 46° SE 20:47:49 10° ENE night (unlit)
26 Jan - 22:21:00 10° W 22:25:30 38° NNW 22:30:00 10° NE night (unlit)
27 Jan - 00:05:15 10° NW 00:08:42 19° N 00:12:09 10° NE night (unlit)
27 Jan - 01:48:22 10° NW 01:52:12 23° NNE 01:55:59 10° ENE night (unlit)
27 Jan - 03:30:18 10° NW 03:35:03 67° NNE 03:39:45 10° ESE visible
27 Jan - 05:13:19 10° W 05:16:53 21° SW 05:20:25 10° S visible
27 Jan - 19:24:05 10° S 19:27:16 18° SE 19:30:28 10° E visible
27 Jan - 21:04:12 10° WSW 21:09:01 80° NW 21:13:50 10° NE night (unlit)
27 Jan - 22:47:48 10° WNW 22:51:47 25° NNW 22:55:44 10° NE night (unlit)
28 Jan - 00:31:50 10° NW 00:35:14 19° N 00:38:37 10° NE night (unlit)
28 Jan - 02:14:10 10° NW 02:18:31 34° NNE 02:22:51 10° E night (unlit)
28 Jan - 03:56:15 10° WNW 04:00:54 56° SW 04:05:31 10° SE visible
28 Jan - 19:48:19 10° SSW 19:52:49 42° SE 19:57:21 10° ENE visible
28 Jan - 21:30:30 10° W 21:35:02 41° NNW 21:39:36 10° NE night (unlit)
28 Jan - 23:14:43 10° NW 23:18:13 20° N 23:21:43 10° NE night (unlit)
